FW1642 Weather Reports


Display with metric or nautical units.
time (UTC)temp
F
wind
direction
speed
MPH
gust
MPH
rain 1hr
in
rain 24hr
in
rain mn
in
humidity
%
barometer
mb
20260505010154 53 342 4.0 7.0 0.00 0.00 0.00 39 1014.8
20260505005650 53 331 4.0 9.0 0.00 0.00 0.00 39 1014.8
20260505005147 53 322 9.0 10.0 0.00 0.00 0.00 39 1014.7
20260505004644 53 309 10.0 17.0 0.00 0.00 0.00 37 1014.7
20260505004140 53 318 6.0 13.0 0.00 0.00 0.00 38 1014.7
20260505003638 53 308 5.0 12.0 0.00 0.00 0.00 38 1014.7
20260505003135 53 313 11.0 12.0 0.00 0.00 0.00 37 1014.7
20260505002631 53 313 13.0 17.0 0.00 0.00 0.00 37 1014.7
20260505002130 53 316 9.0 15.0 0.00 0.00 0.00 37 1014.6
20260505001626 54 346 9.0 15.0 0.00 0.00 0.00 35 1014.4
20260505001124 53 341 7.0 15.0 0.00 0.00 0.00 36 1014.8
20260505000621 53 315 8.0 17.0 0.00 0.00 0.00 37 1014.3
20260505000119 53 320 10.0 15.0 0.00 0.00 0.00 37 1014.4
20260504235615 53 320 13.0 19.0 0.00 0.00 0.00 37 1014.6
20260504235111 53 308 15.0 20.0 0.00 0.00 0.00 36 1014.6
20260504234609 54 314 15.0 22.0 0.00 0.00 0.00 37 1014.3
20260504234106 54 332 8.0 15.0 0.00 0.00 0.00 37 1014.4
20260504233601 54 317 11.0 18.0 0.00 0.00 0.00 36 1014.3
20260504233057 54 303 13.0 18.0 0.00 0.00 0.00 36 1014.2
20260504232555 54 320 12.0 18.0 0.00 0.00 0.00 35 1014.3
20260504232052 55 301 15.0 19.0 0.00 0.00 0.00 35 1014.1
20260504231548 55 328 11.0 20.0 0.00 0.00 0.00 35 1014.3
20260504231045 56 333 9.0 16.0 0.00 0.00 0.00 34 1014.0
20260504230541 56 333 11.0 18.0 0.00 0.00 0.00 35 1014.0
20260504230040 57 311 9.0 12.0 0.00 0.00 0.00 34 1014.3
20260504225537 57 312 10.0 16.0 0.00 0.00 0.00 32 1014.3
20260504225034 56 314 8.0 15.0 0.00 0.00 0.00 34 1014.0
20260504224530 56 325 13.0 16.0 0.00 0.00 0.00 34 1014.1
20260504224028 57 84 2.0 3.0 0.00 0.00 0.00 33 1014.2
20260504223525 57 306 6.0 14.0 0.00 0.00 0.00 36 1014.2
20260504223020 58 324 9.0 11.0 0.00 0.00 0.00 34 1014.3
20260504222517 58 327 4.0 11.0 0.00 0.00 0.00 35 1014.2
20260504222015 58 317 4.0 5.0 0.00 0.00 0.00 34 1014.2
20260504221512 59 345 3.0 3.0 0.00 0.00 0.00 37 1014.2
20260504221009 58 64 3.0 6.0 0.00 0.00 0.00 37 1014.1
20260504220505 57 30 6.0 11.0 0.00 0.00 0.00 33 1014.2
20260504220002 57 329 2.0 6.0 0.00 0.00 0.00 34 1014.3
20260504215459 57 309 5.0 6.0 0.00 0.00 0.00 36 1014.3
20260504214955 55 11 5.0 6.0 0.00 0.00 0.00 40 1014.4
20260504214452 55 18 4.0 9.0 0.00 0.00 0.00 36 1014.6
20260504213948 55 56 2.0 4.0 0.00 0.00 0.00 40 1014.6
20260504213444 55 20 6.0 8.0 0.00 0.00 0.00 37 1014.4
20260504212942 55 32 5.0 11.0 0.00 0.00 0.00 36 1014.7
20260504212438 55 8 5.0 13.0 0.00 0.00 0.00 41 1014.6
20260504211936 55 29 7.0 10.0 0.00 0.00 0.00 38 1014.7
20260504211432 54 325 7.0 11.0 0.00 0.00 0.00 39 1014.4
20260504210929 54 346 3.0 8.0 0.00 0.00 0.00 40 1014.6
20260504210426 54 39 7.0 10.0 0.00 0.00 0.00 39 1014.6
20260504205923 54 16 8.0 16.0 0.00 0.00 0.00 38 1014.6
20260504205421 55 22 9.0 13.0 0.00 0.00 0.00 40 1014.4
20260504204919 54 9 6.0 9.0 0.00 0.00 0.00 40 1014.4
20260504204417 55 7 9.0 9.0 0.00 0.00 0.00 39 1014.7
20260504203916 55 5 6.0 6.0 0.00 0.00 0.00 39 1014.7
20260504203413 55 20 7.0 11.0 0.00 0.00 0.00 38 1014.4
20260504202908 55 322 5.0 9.0 0.00 0.00 0.00 38 1014.8
20260504202406 55 52 6.0 11.0 0.00 0.00 0.00 39 1014.6
20260504201902 55 18 5.0 10.0 0.00 0.00 0.00 38 1014.8
20260504201400 55 20 5.0 11.0 0.00 0.00 0.00 38 1014.7
20260504200857 55 4 4.0 6.0 0.00 0.00 0.00 38 1014.7
20260504200354 55 358 7.0 10.0 0.00 0.00 0.00 38 1014.6
20260504195850 55 5 7.0 9.0 0.00 0.00 0.00 38 1014.7
20260504195345 55 343 6.0 9.0 0.00 0.00 0.00 39 1014.3
20260504194843 55 28 4.0 9.0 0.00 0.00 0.00 37 1014.7
20260504194339 56 0 5.0 11.0 0.00 0.00 0.00 37 1014.6
20260504193835 57 320 5.0 9.0 0.00 0.00 0.00 38 1014.7
20260504193332 56 27 2.0 4.0 0.00 0.00 0.00 35 1014.7
20260504192831 56 12 5.0 9.0 0.00 0.00 0.00 34 1014.8
20260504192328 57 223 0.0 3.0 0.00 0.00 0.00 35 1014.8
20260504191827 57 327 2.0 3.0 0.00 0.00 0.00 33 1014.7
20260504191324 57 75 2.0 4.0 0.00 0.00 0.00 34 1014.8
20260504190819 57 74 1.0 6.0 0.00 0.00 0.00 38 1014.8
20260504190315 57 347 1.0 8.0 0.00 0.00 0.00 37 1015.0
20260504185812 58 30 1.0 9.0 0.00 0.00 0.00 33 1015.0
20260504185309 59 121 2.0 4.0 0.00 0.00 0.00 33 1015.1
20260504184805 59 178 3.0 3.0 0.00 0.00 0.00 44 1014.8
20260504184301 58 110 2.0 6.0 0.00 0.00 0.00 37 1015.0
20260504183757 58 343 2.0 5.0 0.00 0.00 0.00 36 1015.0
20260504183254 59 155 4.0 7.0 0.00 0.00 0.00 35 1014.9
20260504182752 59 189 4.0 5.0 0.00 0.00 0.00 31 1015.0
20260504182249 58 356 1.0 5.0 0.00 0.00 0.00 37 1015.1
20260504181747 58 168 2.0 6.0 0.00 0.00 0.00 36 1015.4
20260504181244 57 343 6.0 7.0 0.00 0.00 0.00 37 1015.0
20260504180743 58 341 2.0 8.0 0.00 0.00 0.00 35 1015.2
20260504180241 56 101 2.0 5.0 0.00 0.00 0.00 38 1015.2
20260504175738 56 108 5.0 7.0 0.00 0.00 0.00 37 1015.4
20260504175235 55 166 4.0 7.0 0.00 0.00 0.00 42 1015.7
20260504174733 55 314 6.0 6.0 0.00 0.00 0.00 36 1015.5
20260504174231 56 244 2.0 5.0 0.00 0.00 0.00 36 1015.5
20260504173727 56 166 2.0 3.0 0.00 0.00 0.00 39 1015.5
20260504173224 56 19 0.0 2.0 0.00 0.00 0.00 40 1015.6
20260504172721 55 144 5.0 9.0 0.00 0.00 0.00 36 1015.5
20260504172217 56 101 8.0 9.0 0.00 0.00 0.00 38 1015.5
20260504171714 56 328 5.0 5.0 0.00 0.00 0.00 41 1015.6
20260504171211 55 122 4.0 5.0 0.00 0.00 0.00 35 1015.5
20260504170707 55 162 3.0 6.0 0.00 0.00 0.00 36 1015.5
20260504170205 56 122 3.0 7.0 0.00 0.00 0.00 34 1015.8
20260504160123 54 92 1.0 4.0 0.00 0.00 0.00 34 1015.9
20260504151050 51 328 5.0 8.0 0.00 0.00 0.00 41 1016.0
20260504150548 51 328 4.0 9.0 0.00 0.00 0.00 40 1016.0
20260504141014 49 317 10.0 11.0 0.00 0.00 0.00 47 1016.0
20260504140510 49 10 10.0 14.0 0.00 0.00 0.00 46 1016.2
20260504130435 46 69 4.0 10.0 0.00 0.00 0.00 50 1015.5
20260504110322 37 141 2.0 3.0 0.00 0.00 0.00 69 1013.5
20260504100240 39 72 1.0 2.0 0.00 0.00 0.00 66 1012.5
20260504081633 41 116 5.0 5.0 0.00 0.00 0.00 62 1012.0
20260504081129 41 124 2.0 3.0 0.00 0.00 0.00 62 1012.0
20260504080626 41 99 2.0 4.0 0.00 0.00 0.00 61 1012.2
20260504080122 42 83 2.0 3.0 0.00 0.00 0.00 61 1011.8
20260504050438 48 102 3.0 4.0 0.00 0.00 0.00 52 1012.0
20260504045936 49 118 2.0 4.0 0.00 0.00 0.00 51 1011.8
20260504045431 49 135 2.0 5.0 0.00 0.00 0.00 50 1012.0
20260504044927 49 144 2.0 5.0 0.00 0.00 0.00 50 1011.9
20260504044425 49 124 2.0 4.0 0.00 0.00 0.00 51 1011.9
20260504043923 50 114 2.0 4.0 0.00 0.00 0.00 49 1011.8
20260504043420 50 149 1.0 3.0 0.00 0.00 0.00 48 1011.8
20260504042917 50 146 3.0 5.0 0.00 0.00 0.00 49 1011.6
20260504042413 51 96 5.0 6.0 0.00 0.00 0.00 47 1011.8
20260504041909 50 142 2.0 6.0 0.00 0.00 0.00 48 1011.5
20260504041406 49 58 2.0 3.0 0.00 0.00 0.00 49 1011.6
20260504040902 49 128 4.0 6.0 0.00 0.00 0.00 48 1011.5
20260504040400 47 122 4.0 5.0 0.00 0.00 0.00 51 1011.4
20260504035855 48 105 3.0 5.0 0.00 0.00 0.00 51 1011.5
20260504035353 48 117 4.0 4.0 0.00 0.00 0.00 49 1011.1
20260504034850 50 112 2.0 3.0 0.00 0.00 0.00 52 1011.0
20260504034347 50 120 2.0 4.0 0.00 0.00 0.00 53 1011.0
20260504033844 51 119 2.0 4.0 0.00 0.00 0.00 49 1011.0
20260504033342 52 125 2.0 3.0 0.00 0.00 0.00 41 1010.8
20260504032838 53 135 1.0 3.0 0.00 0.00 0.00 40 1010.9
20260504032336 54 148 2.0 2.0 0.00 0.00 0.00 37 1010.7
20260504031832 55 112 2.0 2.0 0.00 0.00 0.00 35 1010.8
20260504031330 55 90 2.0 3.0 0.00 0.00 0.00 34 1010.6
20260504030826 56 72 2.0 3.0 0.00 0.00 0.00 34 1010.7
20260504030323 57 66 3.0 4.0 0.00 0.00 0.00 34 1010.7
20260504025819 57 70 2.0 3.0 0.00 0.00 0.00 33 1010.4
20260504025317 57 47 3.0 4.0 0.00 0.00 0.00 33 1010.6
20260504024813 58 63 3.0 4.0 0.00 0.00 0.00 33 1010.3
20260504024310 58 76 3.0 4.0 0.00 0.00 0.00 33 1010.3
20260504023806 60 70 2.0 3.0 0.00 0.00 0.00 31 1010.4
20260504023303 61 58 2.0 3.0 0.00 0.00 0.00 29 1010.6
20260504022759 62 16 3.0 6.0 0.00 0.00 0.00 28 1010.4
20260504022255 62 38 2.0 4.0 0.00 0.00 0.00 29 1010.6
20260504021752 62 43 2.0 3.0 0.00 0.00 0.00 30 1010.7
20260504021250 63 54 2.0 4.0 0.00 0.00 0.00 29 1010.6
20260504020746 64 22 4.0 4.0 0.00 0.00 0.00 28 1010.4
20260504020243 65 13 3.0 5.0 0.00 0.00 0.00 27 1010.4
20260504015739 66 22 3.0 5.0 0.00 0.00 0.00 26 1010.4
20260504015236 67 352 4.0 6.0 0.00 0.00 0.00 24 1010.4
20260504014731 68 359 2.0 3.0 0.00 0.00 0.00 23 1010.4
20260504014228 68 18 2.0 3.0 0.00 0.00 0.00 23 1010.4
20260504013726 69 3 3.0 4.0 0.00 0.00 0.00 20 1010.3
20260504013223 69 9 0.0 2.0 0.00 0.00 0.00 16 1010.1
20260504012720 70 359 2.0 3.0 0.00 0.00 0.00 18 1010.6
20260504012218 71 318 3.0 3.0 0.00 0.00 0.00 18 1010.7
20260504011714 70 325 3.0 3.0 0.00 0.00 0.00 17 1010.4
20260504011211 71 170 0.0 2.0 0.00 0.00 0.00 19 1010.6
20260504010707 71 13 0.0 2.0 0.00 0.00 0.00 19 1010.6